[Iaude] MPEC U35: 2023 TB17 [a=2.87,e=0.64,i=8.3,H=21.9]
    mpec at marsden.cfa.harvard.edu 
    mpec at marsden.cfa.harvard.edu
       
    Mon Oct 16 22:29:34 EDT 2023
    
    
  
M.P.E.C. 2023-U35                              Issued 2023 October 17, 02:28 UT
     The Minor Planet Electronic Circulars contain information on unusual
         minor planets, routine data on comets and natural satellites,
         and occasional editorial announcements.  They are published
    on behalf of Division F of the International Astronomical Union by the
          Minor Planet Center, Smithsonian Astrophysical Observatory,
                          Cambridge, MA 02138, U.S.A.
			  
             Prepared using the Tamkin Foundation Computer Network
                              MPC at CFA.HARVARD.EDU
            URL https://www.minorplanetcenter.net/    ISSN 1523-6714
                                   2023 TB17                                    
Observations:
     K23T17B*1C2023 10 15.09965921 08 48.952+00 30 49.90         19.09GVEU035G96
     K23T17B 1C2023 10 15.10488421 08 52.235+00 30 45.68         19.71GVEU035G96
     K23T17B 1C2023 10 15.11012821 08 55.464+00 30 41.44         19.79GVEU035G96
     K23T17B 1C2023 10 15.11535921 08 58.700+00 30 36.90         19.72GVEU035G96
     K23T17B  C2023 10 15.13685221 09 11.829+00 30 17.82         19.5 GVEU035H01
     K23T17B  C2023 10 15.14066721 09 14.198+00 30 14.73         19.7 GVEU035H01
     K23T17B  C2023 10 15.15085221 09 20.515+00 30 06.25         19.6 GVEU035H01
     K23T17B  C2023 10 15.15838221 09 25.184+00 29 59.93         19.7 GVEU035H01
     K23T17B  C2023 10 15.16100121 09 25.10 +00 30 58.4                WEU035X09
     K23T17B mC2023 10 15.20268321 09 52.900+00 29 24.00         20.13GVEU035I52
     K23T17B mC2023 10 15.20944221 09 57.070+00 29 18.40         20.36GVEU035I52
     K23T17B mC2023 10 15.20965821 09 57.220+00 29 18.10               VEU035I52
     K23T17B mC2023 10 15.21640021 10 01.400+00 29 12.80         20.07GVEU035I52
     K23T17B KC2023 10 15.74598021 15 43.990+00 21 40.32         20.2 GVEU035A17
     K23T17B  C2023 10 15.75167 21 15 47.04 +00 22 50.4          19.5 GVEU035M28
     K23T17B  C2023 10 15.75378 21 15 48.32 +00 22 49.0          19.4 GVEU035M28
     K23T17B  C2023 10 15.75585 21 15 49.63 +00 22 47.0          19.8 GVEU035M28
     K23T17B KC2023 10 15.76220021 15 54.233+00 21 27.07         19.5 GVEU035A17
     K23T17B  C2023 10 15.76321 21 15 54.22 +00 22 41.0          19.4 GVEU035M28
     K23T17B  C2023 10 15.76528 21 15 55.50 +00 22 39.6          19.5 GVEU035M28
     K23T17B  C2023 10 15.76735 21 15 56.79 +00 22 37.6          19.7 GVEU035M28
     K23T17B KC2023 10 15.77830121 16 04.330+00 21 13.50         20.1 GVEU035A17
     K23T17B KC2023 10 15.80989121 16 23.94 +00 20 47.9          19.6 RVEU035K61
     K23T17B KC2023 10 15.81104721 16 24.67 +00 20 46.6          19.2 RVEU035K61
     K23T17B KC2023 10 15.81233221 16 25.51 +00 20 45.6          19.7 RVEU035K61
     K23T17B KC2023 10 16.03912821 18 52.88 +00 17 46.3          20.0 VuEU035H21
     K23T17B KC2023 10 16.04192521 18 54.65 +00 17 43.9          20.0 VuEU035H21
     K23T17B KC2023 10 16.04472121 18 56.41 +00 17 41.5          20.0 VuEU035H21
     K23T17B KC2023 10 16.04751721 18 58.14 +00 17 38.7          20.6 VuEU035H21
     K23T17B KC2023 10 16.08207221 19 20.83 +00 17 13.3          19.9 GXEU035858
     K23T17B KC2023 10 16.08895821 19 25.14 +00 17 07.7          19.8 GXEU035858
     K23T17B KC2023 10 16.09596921 19 29.53 +00 17 01.9          19.8 GXEU035858
     K23T17B !C2023 10 16.14165 21 19 58.87 +00 16 24.6          19.8 RVEU035673
     K23T17B !C2023 10 16.15237 21 20 05.56 +00 16 15.7                VEU035673
     K23T17B KB2023 10 16.75070 21 26 34.33 +00 07 55.0          19.5 RZEU035106
     K23T17B  C2023 10 16.75478 21 26 36.54 +00 09 03.9          19.9 GVEU035M28
     K23T17B KB2023 10 16.75509 21 26 37.06 +00 07 51.5          19.9 RZEU035106
     K23T17B  C2023 10 16.75687 21 26 37.85 +00 09 02.0          19.7 GVEU035M28
     K23T17B  C2023 10 16.75912 21 26 39.26 +00 09 00.2          19.5 GVEU035M28
     K23T17B KB2023 10 16.75948 21 26 39.85 +00 07 48.1          19.8 RZEU035106
     K23T17B KB2023 10 16.76371 21 26 42.54 +00 07 44.4          19.4 RZEU035106
     K23T17B hC2023 10 16.85608021 27 41.13 +00 06 29.5          19.3 GVEU035L01
     K23T17B hC2023 10 16.85860421 27 42.71 +00 06 27.4          19.2 GVEU035L01
     K23T17B hC2023 10 16.86113121 27 44.33 +00 06 25.5          19.5 GVEU035L01
Observer details:
106 Crni Vrh.  Observer H. Mikuz.  0.60-m f/3.3 reflector + CMO.
673 Table Mountain Observatory, Wrightwood.  Observer J. Pittichova.  1.0-m
    f/15 reflector + CCD.
858 Tebbutt Observatory, Edgewood.  Observer F. B. Zoltowski.  0.51-m f/8.1
    Schmidt-Cassegrain + CCD.
A17 Guidestar Observatory, Weinheim.  Observers M. Emmerich, S. Melchert.
    0.36-m f/6.0 Schmidt-Cassegrain + CCD.
G96 Mt. Lemmon Survey.  Observer D. C. Fuls.  Measurers E. C. Beshore, D. Fay,
    J. B. Fazekas, D. C. Fuls, A. R. Gibbs, A. D. Grauer, H. Groeller, J. K.
    Hogan, R. A. Kowalski, S. M. Larson, G. J. Leonard, D. Rankin, R. L.
    Seaman, F. C. Shelly, K. W. Wierzchos.  1.5-m reflector + 10K CCD.
H01 Magdalena Ridge Observatory, Socorro.  Observers W. H. Ryan, E. V. Ryan.
    Measurer W. H. Ryan.  2.4-m f/8.9 Ritchey-Chretien + CCD.
H21 Astronomical Research Observatory, Westfield.  Observer R. Holmes.
    Measurers T. Linder, R. Holmes, L. Horn.  0.76-m f/3.0 astrograph + CCD.
I52 Steward Observatory, Mt. Lemmon Station.  Observer J. K. Hogan.  Measurers
    E. C. Beshore, D. Fay, J. B. Fazekas, D. C. Fuls, A. R. Gibbs, A. D.
    Grauer, H. Groeller, J. K. Hogan, R. A. Kowalski, S. M. Larson, G. J.
    Leonard, D. Rankin, R. L. Seaman, F. C. Shelly, K. W. Wierzchos.  1.0-m
    prime focus + CCD.
K61 Rokycany Observatory.  Observer M. Adamovsky.  0.51-m f/6.8 reflector +
    CCD.
L01 Visnjan Observatory, Tican.  Observers K. Korlevic, I. Lyon.  Measurer K.
    Korlevic.  1.0-m f/2.9 reflector + CCD.
M28 Lesedi Telescope-SAAO Observatory, Sutherland.  Observers N. Erasmus, S.
    Potter, C. van Gend, S. Chandra, H. Worters.  Measurers T. Ngwane, N.
    Erasmus.  1.0-m f/8 Reflector + CCD.
X09 Deep Random Survey, Rio Hurtado.  Observers A. Schnabel, D. Ruhela.
    Measurer S. Deen.  0.43-m reflector + CMOS.
Orbital elements:
2023 TB17                                                Earth MOID = 0.0831 AU
Epoch 2023 Sept. 13.0 TT = JDT 2460200.5                Veres                   
M 357.30463              (2000.0)            P               Q                  
n   0.20266174     Peri.  142.36714     +0.98793941     +0.13684349             
a   2.8704823      Node   210.00923     -0.15178634     +0.94837058             
e   0.6351364      Incl.    8.32960     +0.03060426     +0.28612426             
P   4.86           H   21.93          G   0.15           U   9                  
Residuals in seconds of arc
231015 G96  0.5-  0.1-    231015 M28  1.7-  0.8+    231016 858  0.0   0.0
231015 G96  0.2+  0.0     231015 M28  1.4-  0.5+    231016 858  0.1-  0.0
231015 G96  0.1-  0.1+    231015 A17  0.5+  0.1-    231016 673  0.8+  0.2-
231015 G96  0.1-  0.1-    231015 M28  1.5-  0.7+    231016 673  0.4+  0.3-
231015 H01  0.2+  0.0     231015 M28  1.7-  1.0+    231016 106  0.7+  0.5-
231015 H01  0.2+  0.1+    231015 M28  1.7-  0.7+    231016 M28  1.1-  0.2+
231015 H01  0.3+  0.0     231015 A17  0.0   0.4-    231016 106  0.1-  0.4-
231015 H01  0.2+  0.0     231015 K61  0.8-  0.3+    231016 M28  1.1-  0.0
231015 X09  0.3+  0.1+    231015 K61  0.8-  0.1-    231016 M28  1.3-  0.1+
231015 I52  0.7+  0.4-    231015 K61  0.3-  0.0     231016 106  0.0   0.2-
231015 I52  0.2+  0.4-    231016 H21  0.0   0.9+    231016 106  0.2+  0.4-
231015 I52  0.4+  0.5-    231016 H21  0.2+  0.8+    231016 L01  0.3+  0.4-
231015 I52  0.1+  0.2-    231016 H21  0.3+  0.7+    231016 L01  0.0   0.4-
231015 A17  0.1-  0.3-    231016 H21  0.1-  0.2+    231016 L01  0.2+  0.2-
231015 M28  1.1-  0.5+    231016 858  0.2+  0.1-
Ephemeris:
2023 TB17                a,e,i = 2.87, 0.64, 8                   q = 1.0473
Date    TT    R. A. (2000) Decl.     Delta      r    Elong.  Phase     V
2023 09 17    17 57 09.6 +04 39 18   0.2431  1.0547    95.0    71.7    21.5
...
2023 10 02    19 11 51.6 +03 08 00   0.1828  1.0501   100.6    69.6    20.8
...
2023 10 10    20 17 13.0 +01 40 20   0.1603  1.0632   109.5    62.3    20.3
...
2023 10 16    21 18 26.6 +00 18 54   0.1535  1.0798   118.9    53.9    20.0
2023 10 17    21 29 15.4 +00 05 14   0.1535  1.0831   120.6    52.4    20.0
2023 10 18    21 40 08.0 -00 08 12   0.1538  1.0865   122.3    50.8    19.9
...
2023 10 24    22 44 05.3 -01 17 37   0.1632  1.1101   131.7    42.0    19.9
...
2023 11 01    23 56 01.0 -02 05 02   0.1943  1.1488   140.3    33.5    20.1
...
2023 11 16    01 20 11.9 -01 35 16   0.2947  1.2393   143.8    28.1    21.0
M. P. C. Staff               (C) Copyright 2023 MPC           M.P.E.C. 2023-U35
    
    
More information about the Iaude
mailing list